CZ-6A DEB, 56237

Orbit data source: Space-Track

CZ-6A DEB, 56237 is space debris in SSO originally from a launch on Fri, 11 Nov 2022 UTC launched from the Taiyaun Space Center, China (TSC). Debris objects in space refer to the collection of defunct objects orbiting the Earth. Examples of debris include non-operational satellites, rocket bodies, and fragments generated from explosions, collisions, or faulty payload assembly.

Loading next visibility...
Identifier
56237, 2022-151ABD
Orbit
SSO
Country
Flag of CNCN / PRC
Related business
Manufacturer
SAST
Mission
Spacecraft
Bus & Motor
Unknown
Mass
Unknown
Launch date (UTC)
2022-11-11 (4 years ago)
Launch vehicle
Unknown
Launch site
Taiyaun Space Center, China (TSC)
Object type
Payload
Rocket body
Debris
Shape & HBR
Unknown shape, 0.1 m
Radar Cross Section
Medium (>0.1 m² and <1 m²)

Expand to show TLE details & history
Last TLE update: 20 hours ago

TLE from 20 hours ago
0 CZ-6A DEB
1 56237U 22151ABD 26235.36889297  .00000675  00000-0  50129-3 0  9992
2 56237  98.9078 199.6454 0126472 261.7319  96.9485 13.94780552174237
Epoch: 2026-08-23T08:51Z
TLE epoch observation values (Epoch: 2026-08-23T08:51:12.352Z)
Latitude
-0°
Longitude
95.17799°
Altitude
927.102 km
Speed
7.382 km/s
True Right ascension
13h 18m 34s
True Declination
0° 00' 00"
Sunlit
Object was in daylight at epoch
Visualization orbit readout
Latitude
Unknown
Longitude
Unknown
Altitude
Unknown
Speed
Unknown
Apparent Right ascension
Unknown
Apparent Declination
Unknown
Sunlit
N/A
Visualization observer readout
Local Sidereal Time
19:32:19
Azimuth
Unknown
Elevation
Unknown
Doppler factor
Unknown
Orbital elements
Apogee altitude
1,001.29 km
Perigee altitude
816.963 km
Semi-major axis
7,287.264 km
Eccentricity
0.01265
Inclination
98.9078°
RAAN
199.6454°
Arg. of periapsis
261.7319°
True anomaly
98.38422°
Mean anomaly
96.9485°
Eccentric anomaly
97.66665°
Mean motion
3.48896 °/min
Orbital period
103.18 mins
BSTAR
0.00050129
Loading maneuver chart data...
Computing Atmospheric mass density...
Loading historical data...
Loading historical data...
Loading historical data...
Loading historical data...
Loading historical data...
Loading historical data...
Loading historical data...

Documentation

Showing up to 5 results
|